This is the latest recevied weather packets stored in our database for station/object AD0YN. If no packets are shown the sender has not sent any weather packets the latest 10 day(s).
| Time | Temp. | Humidity | Pressure | Rain* | Wind** | Luminosity | Snow |
|---|---|---|---|---|---|---|---|
| 1777825426 | 19.44° C | 44% | 1012.2 hPa | 0 mm | - | 793 W/m² | - |
| 1777825122 | 19.44° C | 43% | 1012 hPa | 0 mm | - | 770 W/m² | - |
| 1777824818 | 18.89° C | 45% | 1012.1 hPa | 0 mm | - | 764 W/m² | - |
| 1777824515 | 18.89° C | 45% | 1012 hPa | 0 mm | - | 800 W/m² | - |
| 1777824211 | 18.33° C | 46% | 1012.1 hPa | 0 mm | - | 776 W/m² | - |
| 1777823907 | 18.33° C | 45% | 1012.2 hPa | 0 mm | - | 448 W/m² | - |
| 1777823605 | 18.33° C | 43% | 1012.3 hPa | 0 mm | - | 930 W/m² | - |
| 1777823302 | 18.33° C | 44% | 1012.4 hPa | 0 mm | - | 503 W/m² | - |
| 1777823000 | 17.78° C | 44% | 1012.3 hPa | 0 mm | - | 843 W/m² | - |
| 1777822698 | 17.22° C | 45% | 1012.4 hPa | 0 mm | - | 418 W/m² | - |
| 1777822395 | 17.22° C | 46% | 1012.3 hPa | 0 mm | - | 283 W/m² | - |
| 1777822092 | 17.22° C | 48% | 1012.3 hPa | 0 mm | - | 608 W/m² | - |
| 1777821790 | 16.67° C | 45% | 1012.7 hPa | 0 mm | - | 385 W/m² | - |
| 1777821487 | 16.67° C | 48% | 1012.6 hPa | 0 mm | - | 564 W/m² | - |
| 1777821185 | 16.11° C | 47% | 1012.6 hPa | 0 mm | - | 334 W/m² | - |
| 1777820881 | 16.11° C | 46% | 1012.7 hPa | 0 mm | - | 314 W/m² | - |
| 1777820577 | 16.11° C | 46% | 1012.7 hPa | 0 mm | - | 282 W/m² | - |
| 1777820274 | 16.11° C | 48% | 1012.8 hPa | 0 mm | - | 333 W/m² | - |
| 1777819972 | 16.11° C | 49% | 1012.8 hPa | 0 mm | - | 336 W/m² | - |
| 1777819669 | 15.56° C | 48% | 1012.9 hPa | 0 mm | - | 364 W/m² | - |
| 1777819367 | 15.56° C | 47% | 1012.9 hPa | 0 mm | - | 291 W/m² | - |
| 1777819064 | 15° C | 48% | 1013.1 hPa | 0 mm | - | 231 W/m² | - |
| 1777818761 | 15° C | 48% | 1013.1 hPa | 0 mm | - | 200 W/m² | - |
| 1777818457 | 15° C | 48% | 1013.2 hPa | 0 mm | - | 226 W/m² | - |
| 1777818154 | 15° C | 47% | 1013.4 hPa | 0 mm | - | 252 W/m² | - |
* Rain latest hour (hover to see other rain measurements)
** Current wind speed in m/s (hover to see current wind gust speed)